EAT,Max TemperatureF,Mean TemperatureF,Min TemperatureF,Max Dew PointF,MeanDew PointF,Min DewpointF,Max Humidity, Mean Humidity, Min Humidity, Max Sea Level PressureIn, Mean Sea Level PressureIn, Min Sea Level PressureIn, Max VisibilityMiles, Mean VisibilityMiles, Min VisibilityMiles, Max Wind SpeedMPH, Mean Wind SpeedMPH, Max Gust SpeedMPH,PrecipitationIn, CloudCover, Events, WindDirDegrees
2014-3-1,92,84,77,75,72,69,89,71,41,29.95,29.87,29.83,19,9,6,17,4,,0.00,2,,89
2014-3-2,91,82,74,76,74,71,94,72,44,29.95,29.87,29.80,19,10,6,17,5,,0.00,3,,96
2014-3-3,91,82,74,76,74,71,94,71,43,29.92,29.85,29.77,19,10,6,17,7,,0.00,3,,100
2014-3-4,91,83,75,77,76,73,94,74,52,29.92,29.86,29.80,19,10,6,17,7,,0.00,4,,146
2014-3-5,91,84,76,78,76,73,94,77,51,29.92,29.84,29.77,19,9,6,17,6,,0.08,4,Rain,166
2014-3-6,93,84,75,77,74,69,100,73,47,29.92,29.84,29.76,19,9,6,23,8,,0.00,5,Rain,190
2014-3-7,91,82,74,77,74,70,89,72,48,29.89,29.84,29.79,19,10,6,17,9,,0.00,3,,169
2014-3-8,92,84,76,77,75,73,94,72,51,29.92,29.87,29.77,19,9,6,20,7,,0.00,4,,100
2014-3-9,91,82,74,77,76,73,94,75,48,29.92,29.85,29.77,19,9,6,21,6,,0.00,3,Rain,87
2014-3-10,91,84,77,77,75,73,89,73,57,29.89,29.81,29.74,19,9,6,20,6,,0.01,5,Rain,108
2014-3-11,92,84,75,81,75,72,91,72,46,29.89,29.82,29.74,19,10,6,15,7,,0.00,3,,153
2014-3-12,93,84,74,77,74,68,89,72,46,29.92,29.85,29.77,19,9,6,18,9,,0.00,4,Rain,169
2014-3-13,93,84,75,77,75,72,94,72,46,29.92,29.85,29.77,19,9,6,18,6,,0.00,3,,117
2014-3-14,90,82,75,78,76,73,94,80,55,29.95,29.84,29.74,19,10,6,14,4,,1.34,5,Rain-Thunderstorm,196
2014-3-15,88,81,74,77,74,70,100,81,55,29.95,29.87,29.83,19,9,6,18,3,,0.28,3,Rain-Thunderstorm,247
2014-3-16,90,81,72,77,74,71,94,74,52,29.95,29.89,29.83,19,10,6,17,5,,0.00,1,,141
2014-3-17,91,84,78,79,75,70,94,74,49,29.96,29.88,29.80,19,9,6,21,5,,0.00,2,,63
2014-3-18,92,84,75,77,76,73,94,77,56,29.95,29.87,29.58,19,9,6,17,8,,0.02,4,Rain,30
2014-3-19,90,82,74,77,75,73,94,76,50,29.95,29.87,29.80,19,9,6,21,6,,0.08,3,,46
2014-3-20,90,82,74,75,74,73,94,74,53,29.95,29.87,29.80,19,9,6,21,7,,0.00,3,,70
2014-3-21,90,82,75,76,74,73,94,73,51,29.93,29.85,29.80,19,9,6,15,6,,0.00,3,,101
2014-3-22,91,82,74,77,75,72,94,74,46,29.89,29.82,29.74,19,10,6,18,6,,0.00,1,,161
2014-3-23,93,83,73,79,76,72,94,74,48,29.86,29.80,29.74,19,9,6,21,7,,0.00,3,,176
2014-3-24,93,85,77,79,77,72,94,75,43,29.87,29.80,29.73,19,9,6,23,11,,0.00,3,,181
2014-3-25,91,84,77,78,77,75,94,73,54,29.83,29.76,29.65,19,8,6,17,7,,0.00,2,,132
2014-3-26,91,82,73,78,76,72,96,82,57,29.88,29.79,29.68,19,9,6,58,6,,0.00,5,Thunderstorm,31
2014-3-27,86,80,74,79,77,73,94,84,70,29.89,29.81,29.74,19,8,4,14,5,,0.83,4,Rain-Thunderstorm,109
2014-3-28,90,82,75,79,76,73,100,79,51,29.89,29.82,29.76,19,8,6,18,4,,0.00,5,,61
2014-3-29,90,84,77,77,75,71,94,79,47,29.89,29.83,29.77,19,8,6,14,5,,0.00,4,,46
2014-3-30,89,82,76,77,76,73,94,78,54,29.92,29.84,29.74,19,9,6,18,4,,0.00,3,,76
2014-3-31,88,81,74,77,75,72,94,80,53,29.95,29.87,29.80,19,9,6,16,3,,0.00,4,,121